Date String (YYYY-MM-DD hh:mm:ss) UTC,Instrument flags,Ambient pressure (hPa),Sample flow (lpm),Bypass flow (lpm),Sample temperature (°C),Ambient temperature (°C),ASC tube jacket temperature (°C),LED temperature (°C),Box temperature (°C),Sample RH (%),Span deviation,Mass concentration (μg/m³),Mass concentration (μg/m³),Mass concentration (μg/m³)
DateTimeUTC,F1_M11,P_M11,Q1_M11,Q2_M11,T1_M11,T2_M11,T3_M11,T4_M11,T5_M11,U1_M11,ZSPAN_M11,X0_M11,X2_M11,X1_M11
2022-04-23 10:00:00,,0809.1,4.99,0.00,24.0,23.1,00.0,33.1,25.7,12.2,0000.0,0001.02,0000.33,0000.08
2022-04-23 10:01:00,,0809.1,5.00,0.00,24.0,23.1,00.0,33.1,25.7,12.2,0000.0,0001.63,0000.35,0000.08
2022-04-23 10:02:00,,0809.0,5.01,0.00,24.0,23.1,00.0,33.1,25.7,12.3,0000.0,0001.89,0000.40,0000.08
2022-04-23 10:03:00,,0809.1,4.99,0.00,24.0,23.1,00.0,33.0,25.7,12.2,0000.0,0002.96,0000.42,0000.08
2022-04-23 10:04:00,,0809.0,4.99,0.00,24.0,23.1,00.0,33.0,25.6,12.3,0000.0,0003.04,0000.38,0000.08
2022-04-23 10:05:00,,0809.1,5.02,0.00,24.0,23.1,00.0,33.0,25.7,12.3,0000.0,0002.99,0000.38,0000.08
2022-04-23 10:06:00,,0808.9,4.99,0.00,24.0,23.1,00.0,33.0,25.7,12.4,0000.0,0002.89,0000.34,0000.07
2022-04-23 10:07:00,,0808.9,5.01,0.00,24.0,23.0,00.0,33.0,25.7,12.2,0000.0,0004.21,0000.32,0000.07
2022-04-23 10:08:00,,0809.0,5.01,0.00,24.0,23.0,00.0,33.0,25.6,12.0,0000.0,0004.33,0000.33,0000.07
2022-04-23 10:09:00,,0809.0,4.99,0.00,24.0,23.0,00.0,33.0,25.7,12.0,0000.0,0004.38,0000.34,0000.07
2022-04-23 10:10:00,,0808.9,5.00,0.00,24.0,23.0,00.0,33.0,25.7,12.2,0000.0,0004.41,0000.33,0000.07
2022-04-23 10:11:00,,0808.9,5.02,0.00,24.0,23.0,00.0,33.0,25.7,12.2,0000.0,0004.37,0000.32,0000.07
2022-04-23 10:12:00,,0808.9,4.99,0.00,24.0,23.0,00.0,33.0,25.7,12.2,0000.0,0003.67,0000.30,0000.07
2022-04-23 10:13:00,,0808.9,4.99,0.00,24.0,23.1,00.0,33.0,25.7,12.2,0000.0,0003.49,0000.26,0000.06
2022-04-23 10:14:00,,0809.0,5.02,0.00,24.0,23.1,00.0,33.0,25.7,12.3,0000.0,0002.61,0000.25,0000.07
2022-04-23 10:15:00,,0808.9,4.99,0.00,24.0,23.1,00.0,33.0,25.7,12.3,0000.0,0002.33,0000.27,0000.06
2022-04-23 10:16:00,,0808.9,5.02,0.00,24.0,23.0,00.0,33.0,25.7,12.3,0000.0,0002.52,0000.28,0000.06
2022-04-23 10:17:00,,0808.7,5.00,0.00,24.0,23.0,00.0,33.0,25.7,12.3,0000.0,0002.69,0000.31,0000.06
2022-04-23 10:18:00,,0808.7,5.00,0.00,24.0,22.9,00.0,33.0,25.6,12.3,0000.0,0001.61,0000.31,0000.06
2022-04-23 10:19:00,,0808.8,5.02,0.00,24.0,22.9,00.0,33.0,25.7,12.4,0000.0,0001.26,0000.32,0000.05
2022-04-23 10:20:00,,0808.9,4.99,0.00,24.0,22.9,00.0,33.0,25.6,12.5,0000.0,0001.21,0000.31,0000.05
2022-04-23 10:21:00,,0808.9,5.00,0.00,24.0,22.9,00.0,33.0,25.6,12.5,0000.0,0001.14,0000.28,0000.05
2022-04-23 10:22:00,,0808.9,5.00,0.00,24.0,22.9,00.0,33.0,25.6,12.5,0000.0,0001.99,0000.30,0000.05
2022-04-23 10:23:00,,0808.8,4.99,0.00,24.0,23.0,00.0,33.0,25.6,12.6,0000.0,0003.23,0000.33,0000.06
2022-04-23 10:24:00,,0808.9,5.02,0.00,24.0,23.0,00.0,33.0,25.7,12.6,0000.0,0003.40,0000.37,0000.06
2022-04-23 10:25:00,,0808.9,5.00,0.00,24.0,23.0,00.0,33.0,25.7,12.5,0000.0,0004.03,0000.43,0000.06
2022-04-23 10:26:00,,0808.9,4.99,0.00,24.0,23.1,00.0,33.0,25.8,12.3,0000.0,0004.38,0000.45,0000.07
2022-04-23 10:27:00,,0809.0,5.02,0.00,24.1,23.1,00.0,33.0,25.9,12.3,0000.0,0004.73,0000.42,0000.07
2022-04-23 10:28:00,,0809.0,5.00,0.00,24.1,23.2,00.0,33.0,25.9,12.2,0000.0,0004.67,0000.41,0000.07
2022-04-23 10:29:00,,0809.1,4.99,0.00,24.1,23.2,00.0,33.0,26.0,12.2,0000.0,0004.62,0000.40,0000.07
2022-04-23 10:30:00,,0809.2,4.99,0.00,24.1,23.3,00.0,33.0,26.0,12.1,0000.0,0004.66,0000.43,0000.06
2022-04-23 10:31:00,,0809.1,5.00,0.00,24.1,23.3,00.0,33.1,26.0,12.1,0000.0,0004.78,0000.43,0000.07
2022-04-23 10:32:00,,0809.0,5.01,0.00,24.1,23.3,00.0,33.1,26.0,12.1,0000.0,0005.16,0000.47,0000.07
2022-04-23 10:33:00,,0809.1,5.00,0.00,24.1,23.3,00.0,33.1,26.0,12.0,0000.0,0004.29,0000.48,0000.07
2022-04-23 10:34:00,,0809.0,4.99,0.00,24.1,23.3,00.0,33.1,26.0,12.1,0000.0,0003.32,0000.48,0000.07
2022-04-23 10:35:00,,0809.2,5.00,0.00,24.1,23.3,00.0,33.1,26.0,12.2,0000.0,0003.23,0000.46,0000.08
2022-04-23 10:36:00,,0809.3,5.01,0.00,24.1,23.3,00.0,33.1,26.0,12.2,0000.0,0002.55,0000.42,0000.07
2022-04-23 10:37:00,,0809.3,5.00,0.00,24.2,23.3,00.0,33.1,26.0,12.2,0000.0,0002.19,0000.39,0000.07
2022-04-23 10:38:00,,0809.3,5.00,0.00,24.2,23.4,00.0,33.1,26.0,12.2,0000.0,0002.10,0000.46,0000.07
2022-04-23 10:39:00,,0809.2,4.99,0.00,24.2,23.4,00.0,33.1,26.0,12.1,0000.0,0002.14,0000.48,0000.07
2022-04-23 10:40:00,,0809.1,5.00,0.00,24.2,23.4,00.0,33.1,26.0,11.9,0000.0,0002.18,0000.46,0000.07
2022-04-23 10:41:00,,0809.2,5.01,0.00,24.2,23.4,00.0,33.1,26.0,11.9,0000.0,0002.39,0000.42,0000.07
2022-04-23 10:42:00,,0809.2,5.00,0.00,24.2,23.4,00.0,33.1,26.0,12.0,0000.0,0002.40,0000.45,0000.07
2022-04-23 10:43:00,,0809.3,5.00,0.00,24.1,23.4,00.0,33.1,26.0,12.1,0000.0,0002.26,0000.44,0000.08
2022-04-23 10:44:00,,0809.3,5.00,0.00,24.1,23.3,00.0,33.1,25.9,11.9,0000.0,0002.28,0000.43,0000.07
2022-04-23 10:45:00,,0809.2,5.00,0.00,24.1,23.3,00.0,33.1,25.9,11.7,0000.0,0002.30,0000.42,0000.07
2022-04-23 10:46:00,,0809.4,5.01,0.00,24.1,23.3,00.0,33.1,25.9,11.7,0000.0,0002.16,0000.37,0000.07
2022-04-23 10:47:00,,0809.1,5.01,0.00,24.1,23.3,00.0,33.1,25.9,11.7,0000.0,0002.05,0000.35,0000.07
2022-04-23 10:48:00,,0809.2,4.99,0.00,24.1,23.3,00.0,33.1,26.0,12.0,0000.0,0002.15,0000.35,0000.07
2022-04-23 10:49:00,,0809.3,5.01,0.00,24.1,23.3,00.0,33.1,26.0,12.1,0000.0,0001.89,0000.30,0000.06
2022-04-23 10:50:00,,0809.3,5.01,0.00,24.1,23.3,00.0,33.1,25.9,12.2,0000.0,0001.68,0000.29,0000.06
2022-04-23 10:51:00,,0809.3,5.00,0.00,24.1,23.3,00.0,33.1,25.9,12.2,0000.0,0001.75,0000.34,0000.07
2022-04-23 10:52:00,,0809.3,5.00,0.00,24.1,23.3,00.0,33.1,25.9,12.4,0000.0,0001.54,0000.35,0000.07
2022-04-23 10:53:00,,0809.3,4.99,0.00,24.1,23.2,00.0,33.1,25.8,12.4,0000.0,0001.46,0000.32,0000.06
2022-04-23 10:54:00,,0809.2,5.02,0.00,24.1,23.2,00.0,33.1,25.9,12.4,0000.0,0001.28,0000.33,0000.06
2022-04-23 10:55:00,,0809.0,4.99,0.00,24.1,23.2,00.0,33.1,25.9,12.5,0000.0,0001.15,0000.33,0000.07
2022-04-23 10:56:00,,0809.0,5.00,0.00,24.1,23.2,00.0,33.1,25.9,12.3,0000.0,0001.01,0000.33,0000.06
2022-04-23 10:57:00,,0809.0,4.99,0.00,24.1,23.2,00.0,33.1,25.9,12.5,0000.0,0002.02,0000.37,0000.06
2022-04-23 10:58:00,,0809.0,5.02,0.00,24.1,23.2,00.0,33.1,25.9,12.5,0000.0,0002.45,0000.41,0000.06
2022-04-23 10:59:00,,0809.0,4.99,0.00,24.1,23.2,00.0,33.1,25.8,12.4,0000.0,0002.40,0000.40,0000.06
